Weather in Nikolaevka

Ukraine / Mykolaiv District     47°44′59″N   32°50′46″E
temp.,
°C
wind,
m/s
gust,
m/s
humid.,
%
clouds,
%
prec.,
mm/h
press.,
hPa
HPBL,
m
18 april, sun
sun1800:00+6se2271100 0.0 101922
03:00+6wsw116682 0.0 101910
06:00+4wsw11755 0.0 101910
09:00+9w115492 0.0 1018374
12:00+13sw2242100 0.0 10181401
15:00+15wsw234093 0.0 10161793
18:00+15w124260 0.0 10161780
21:00+11ne356099 0.0 1017129
19 april, mon
mon1900:00+11ne2262100 0.0 101732
03:00+10ne2366100 0.0 101766
06:00+8ne3377100 0.0 101645
09:00+11ne336798 0.0 1017475
12:00+14ene225299 0.1 10161505
15:00+14nne2250100 0.4 10151546
18:00+14ne335293 0.1 10141320
21:00+12ne4763100 0.2 1013167
20 april, tue
tue2000:00+11ne4863100 0.0 1011252
03:00+9ne61269100 0.0 1009339
06:00+8ne71278100 0.5 1006497
09:00+8nne81485100 2.4 1004726
12:00+9nne81290100 9.0 10011075
15:00+9n91289100 14.3 10001108
18:00+9nnw81387100 2.0 10021276
21:00+9nw71286100 2.3 1005637
21 april, wed
wed2100:00+8wnw7128199 0.0 1007558
03:00+6w51188100 0.0 1010337
06:00+5w4990100 0.0 1013289
09:00+8wnw5768100 0.0 1015787
12:00+12wnw5853100 0.0 10161454
15:00+14wsw5745100 0.0 10162180
18:00+13sw456291 0.1 1017769
21:00+10ssw377992 0.6 1018184
22 april, thu
thu2200:00+9ssw388686 0.1 1019237
03:00+6s369382 0.1 1019127
06:00+6s369510 0.0 1019138
09:00+11ssw57755 0.0 1020609
12:00+15ssw5661100 2.0 10191391
15:00+15sw6758100 3.9 10181408
18:00+15ssw566297 0.1 1019951
21:00+10s498213 0.1 1019199